CZ-3A DEB, 40157

Orbit data source: Space-Track

CZ-3A DEB, 40157 is space debris in HEO originally from a launch on Fri, 02 Feb 2007 UTC launched from the Xichang Space Center, China (XSC). Debris objects in space refer to the collection of defunct objects orbiting the Earth. Examples of debris include non-operational satellites, rocket bodies, and fragments generated from explosions, collisions, or faulty payload assembly.

Loading next visibility...
Identifier
40157, 2007-003AR
Orbit
HEO
Country
Flag of CNCN / PRC
Related business
Manufacturer
Unknown
Mission
Spacecraft
Bus & Motor
Unknown
Mass
Unknown
Launch date (UTC)
2007-02-02 (19 years ago)
Launch vehicle
Unknown
Launch site
Xichang Space Center, China (XSC)
Object type
Payload
Rocket body
Debris
Shape & HBR
Unknown shape, 0.2 m
Radar Cross Section
Medium (>0.1 m² and <1 m²)

Expand to show TLE details & history
Last TLE update: 9 months ago

TLE from 9 months ago
0 CZ-3A DEB
1 40157U 07003AR  25204.38131855 -.00000270  00000-0  45288-2 0  9993
2 40157  24.5299  77.6461 7412903 262.4836 348.7704  1.83642669102267
Epoch: 2025-07-23T09:09Z
TLE epoch observation values (Epoch: 2025-07-23T09:09:05.922Z)
Latitude
-0.92597°
Longitude
-178.82872°
Altitude
4,863.72 km
Speed
7.534 km/s
True Right ascension
17h 19m 13s
True Declination
0° 55' 21"
Sunlit
Object was in daylight at epoch
Visualization orbit readout
Latitude
Unknown
Longitude
Unknown
Altitude
Unknown
Speed
Unknown
Apparent Right ascension
Unknown
Apparent Declination
Unknown
Sunlit
N/A
Visualization observer readout
Local Sidereal Time
16:36:09
Azimuth
Unknown
Elevation
Unknown
Doppler factor
Unknown
Orbital elements
Apogee altitude
42,676.87 km
Perigee altitude
910.14 km
Semi-major axis
28,171.642 km
Eccentricity
0.74129
Inclination
24.5299°
RAAN
77.6461°
Arg. of periapsis
262.4836°
True anomaly
278.93387°
Mean anomaly
348.7704°
Eccentric anomaly
323.51635°
Mean motion
0.45901 °/min
Orbital period
784.29 mins
BSTAR
0.0045288
Loading maneuver chart data...
Computing Atmospheric mass density...
Loading historical data...
Loading historical data...
Loading historical data...
Loading historical data...
Loading historical data...
Loading historical data...
Loading historical data...

Documentation

Showing up to 5 results
|